Tracking 35237 objects as of 6-Sep-2026
HD Live streaming from Space Station
objects crossing your sky now

CHINASAT 20

Track CHINASAT 20 now!
CHINASAT 20 is classified as:


NORAD ID: 28082
Int'l Code: 2003-052A
Launch date: November 14, 2003
Source: People's Republic of China (PRC)
Launch site: Xichang Space Center, China (XSC)

Dedicated military communications satellite.
Your satellite tracking list
Your tracking list is empty




NASA's NSSDC Master Catalog

Two Line Element Set (TLE):
1 28082U 03052A   26249.03409608  .00000065  00000-0  00000-0 0  9994
2 28082  10.6406  49.1106 0005381 142.8647 228.9984  0.99106736 83193
Source of the keplerian elements: AFSPC